Weather in Sherabad

Uzbekistan     37˚40′30″N   67˚00′59″E
temp.,
°C
wind,
m/s
gust,
m/s
humid.,
%
clouds,
%
prec.,
mm/h
press.,
hPa
HPBL,
m
3 december, thu
thu323:00+7˚e124752 0.0 102522
02:00+6˚ene23470 0.0 102525
05:00+5˚ene23490 0.0 102623
08:00+5˚ene125091 0.0 102622
11:00+10˚e123793 0.0 1026325
14:00+12˚ese1134100 0.0 1024467
17:00+11˚ssw4637100 0.0 1025299
20:00+9˚s2466100 0.1 1026200
4 december, fri
fri423:00+7˚e1182100 0.6 1027106
02:00+6˚e2286100 0.1 1027181
05:00+6˚ene3384100 0.1 1027225
08:00+6˚ene2272100 0.1 1028230
11:00+7˚se1166100 0.3 1030391
14:00+9˚se215494 0.0 1029582
17:00+8˚e335359 0.0 1029156
20:00+6˚ne33511 0.0 103143
5 december, sat
sat523:00+4˚ne464314 0.0 1030113
02:00+3˚ne344744 0.0 103094
05:00+2˚ne334840 0.0 102930
08:00+3˚n224981 0.0 102924
11:00+7˚ne335081 0.0 1028713
14:00+9˚ne225127 0.0 1025979
17:00+7˚nne006214 0.0 102524
20:00+5˚sw22650 0.0 102622
6 december, sun
sun623:00+4˚nne00710 0.0 102622
02:00+3˚nne12780 0.0 102622
05:00+3˚nne12800 0.0 102622
08:00+3˚ne128022 0.0 102622
11:00+10˚ne344413 0.0 1025725
14:00+13˚ene463318 0.0 1022949
17:00+10˚ne224138 0.0 102023
20:00+10˚nnw2340100 0.0 101923
7 december, mon
mon723:00+9˚ssw2245100 0.0 101933
02:00+8˚wsw1248100 0.0 102025
05:00+7˚e115696 0.0 102222
08:00+7˚ne4555100 0.0 1026144
11:00+8˚nne3356100 0.1 1028605
14:00+6˚ene3366100 0.0 1028510
17:00+6˚ne237199 0.0 1029355
20:00+5˚ene3574100 0.0 1030354